Terminal Aerodrome Forecast
Issued by NWS Cleveland, OH

Home | Current Version | Previous Version | Graphics & Text | Print | Product List | Glossary On
Versions: 1 2 3 4 5 6 7 8 9 10 11 12 13 14 15 16 17 18
000
FTUS41 KCLE 231700
TAFCAK
TAF
KCAK 231738Z 2318/2418 30014G22KT P6SM VCSH OVC040
     FM240000 30010KT P6SM OVC040
     FM240600 30008KT P6SM BKN040
     FM241200 31012KT P6SM SCT040=

USA.gov is the U.S. government's official web portal to all federal, state and local government web resources and services.